Hourly Data Report for January 07, 2018

All times are specified in Local Standard Time (LST). Add 1 hour to adjust for Daylight Saving Time where and when it is observed.

TORONTO INTL A
ONTARIO

43°40'36.000" N
79°37'50.000" W
173.40 m
6158731
71624
YYZ

Download Data

Hourly Data (January 2018)
Hourly Data Report for January 7, 2018
Temp Definition
°C
Dew Point Temp Definition
°C
Rel Hum Definition
%
Wind Dir Definition
10's deg

Wind Spd Definition
km/h
Visibility Definition
km
Stn Press Definition
kPa
Hmdx Definition


Wind Chill Definition


Weather Definition


TIME
00:00 Legend Double Dagger -20.5 -24.9 68 27 9 24.1 101.23   -27 LegendNANA
01:00 Legend Double Dagger -20.6 -24.9 69 26 7 24.1 101.20   -26 Mostly Cloudy
02:00 Legend Double Dagger -18.6 -22.7 71 23 8 24.1 101.14   -25 LegendNANA
03:00 Legend Double Dagger -19.1 -23.2 71 26 4 24.1 101.11   -22 LegendNANA
04:00 Legend Double Dagger -18.1 -22.1 71 24 7 24.1 101.08   -23 Mostly Cloudy
05:00 Legend Double Dagger -18.0 -22.1 71 22 8 24.1 101.05   -24 LegendNANA
06:00 Legend Double Dagger -17.5 -22.1 68 23 11 24.1 101.05   -25 LegendNANA
07:00 Legend Double Dagger -16.5 -21.4 66 23 14 24.1 101.04   -24 Mostly Cloudy
08:00 Legend Double Dagger -15.5 -20.9 64 21 9 24.1 100.95   -21 LegendNANA
09:00 Legend Double Dagger -14.5 -20.0 63 20 15 24.1 100.85   -22 LegendNANA
10:00 Legend Double Dagger -12.2 -17.4 66 21 22 24.1 100.75   -21 Mostly Cloudy
11:00 Legend Double Dagger -11.3 -17.3 62 23 27 24.1 100.70   -21 LegendNANA
12:00 Legend Double Dagger -10.8 -17.5 58 20 21 24.1 100.51   -19 LegendNANA
13:00 Legend Double Dagger -10.4 -17.5 56 20 29 24.1 100.28   -20 Cloudy
14:00 Legend Double Dagger -10.0 -17.4 55 20 27 24.1 100.15   -19 LegendNANA
15:00 Legend Double Dagger -9.5 -16.8 56 20 24 24.1 100.00   -18 LegendNANA
16:00 Legend Double Dagger -9.0 -16.6 55 21 21 24.1 99.89   -17 Cloudy
17:00 Legend Double Dagger -8.1 -16.0 53 22 24 24.1 99.80   -16 LegendNANA
18:00 Legend Double Dagger -7.6 -13.9 61 22 25 24.1 99.76   -16 Snow
19:00 Legend Double Dagger -7.1 -11.6 70 22 22 24.1 99.65   -15 Snow
20:00 Legend Double Dagger -6.0 -11.5 66 22 22 24.1 99.63   -13 LegendNANA
21:00 Legend Double Dagger -4.8 -11.7 59 21 18 24.1 99.54   -11 LegendNANA
22:00 Legend Double Dagger -4.0 -9.8 65 23 28 24.1 99.50   -11 Freezing Rain,Snow
23:00 Legend Double Dagger -3.4 -8.5 68 23 20 24.1 99.48   -10 Freezing Rain,Snow

Notes on Data Quality.

Legend

  • E = Estimated
  • M = Missing
  • NA = Not Available
  • ‡ = Partner data that is not subject to review by the National Climate Archives
Date modified: